Skip Page Navigation
NASA JPL Caltech
NASA Logo - Jet Propulsion Laboratory + View the NASA Portal
+ Center for Near-Earth Object Studies
JPL Home Earth Solar System Stars & Galaxies Technology
JPL Solar System Dynamics
BODIES ORBITS EPHEMERIDES TOOLS PHYSICAL DATA DISCOVERY FAQ SITE MAP
IMPORTANT: The SSD Announcement email list is now available. Major changes are coming in the near future, including possible hostname and/or URL changes. To be notified of such changes, subscribe to this email list.

Please visit this page for more details.


JPL Small-Body Database Browser
Search: [ help ]  
136846 (1997 YV14)
Classification: Main-belt Asteroid          SPK-ID: 2136846
Ephemeris | Orbit Diagram | Orbital Elements | Mission Design | Physical Parameters | Discovery Circumstances ]

[ show orbit diagram ]
Orbital Elements at Epoch 2458600.5 (2019-Apr-27.0) TDB
Reference: JPL 12 (heliocentric ecliptic J2000)
 Element Value Uncertainty (1-sigma)   Units 
e .09531109129958192 5.5639e-08  
a 2.19617585904509 1.0008e-08 au
q 1.986855941233706 1.1964e-07 au
i 2.300069350593769 4.3435e-06 deg
node 301.2865725197699 0.00014015 deg
peri 268.3445967522488 0.0001419 deg
M 108.1123648178613 2.3386e-05 deg
tp 2458243.496919784055
(2018-May-04.99691978)
7.6508e-05 TDB
period 1188.773449681375
3.25
8.1258e-06
2.225e-08
d
yr
n .3028331429310523 2.07e-09 deg/d
Q 2.405495776856474 1.0962e-08 au
  Orbit Determination Parameters
   # obs. used (total)      441  
   data-arc span      7974 days (21.83 yr)  
   first obs. used      1997-12-28  
   last obs. used      2019-10-28  
   planetary ephem.      DE431  
   SB-pert. ephem.      SB431-N16  
   condition code      0  
   norm. resid. RMS      .61105  
   source      ORB  
   producer      Otto Matic  
   solution date      2019-Nov-07 16:05:34  

Additional Information
 Earth MOID = .983172 au 
 Jupiter MOID = 2.56423 au 
 T_jup = 3.662 
[ show covariance matrix ]

Ephemeris | Orbit Diagram | Orbital Elements | Mission Design | Physical Parameters | Discovery Circumstances ]

Physical Parameter Table
Parameter Symbol Value Units Sigma Reference Notes
absolute magnitude H 16.6   n/a MPO236902  

136846 (1997 YV14)          Discovered 1997-Dec-28 by Spacewatch at Kitt Peak
Reference: 20061205/Numbers.arcLast Updated: 2006-12-13

Alternate Designations
 1997 YV14 = 2003 UO257 
Ephemeris | Orbit Diagram | Orbital Elements | Mission Design | Physical Parameters | Discovery Circumstances ]
ABOUT SSD CREDITS/AWARDS PRIVACY/COPYRIGHT GLOSSARY LINKS
FirstGov
(server date/time)  
NASA Home Page
Site Manager:   Ryan S. Park
Webmaster  Alan B. Chamberlin